Weather in Gusevka

Russia / Volgograd Oblast     49°54′32″N   44°41′20″E
temp.,
°C
wind,
m/s
gust,
m/s
humid.,
%
clouds,
%
prec.,
mm/h
press.,
hPa
HPBL,
m
27 july, tue
tue2700:00+18ene49520 0.0 1021158
03:00+18ene345416 0.0 102246
06:00+19ne35520 0.0 1022142
09:00+25ene44310 0.0 10211226
12:00+28ene44253 0.0 10202278
15:00+29nne342522 0.0 10182846
18:00+28nne2329100 0.0 10182451
21:00+23ne114099 0.0 101819
28 july, wed
wed2800:00+21s11442 0.0 101811
03:00+20wnw224623 0.0 101711
06:00+21nne22484 0.0 101868
09:00+26ene22365 0.0 1017914
12:00+30sw022975 0.0 10162840
15:00+31nw232653 0.0 10153102
18:00+30nnw222721 0.0 10142797
21:00+25ene33375 0.0 101531
29 july, thu
thu2900:00+22sse224256 0.0 101422
03:00+22ssw3445100 0.0 101451
06:00+23ssw3947100 0.0 1013213
09:00+29sw673117 0.0 1012768
12:00+33wsw792557 0.0 10103423
15:00+31wsw6929100 0.0 10091211
18:00+30wsw6113648 0.1 1009590
21:00+25wsw3351100 0.1 101038
30 july, fri
fri3000:00+24wsw335624 0.0 100927
03:00+22wsw236216 0.1 100921
06:00+24wsw3658100 0.2 1010194
09:00+30wsw45407 0.2 1010692
12:00+34wsw572950 0.0 10093216
15:00+33w7730100 0.0 10082418
18:00+29wsw9114570 0.2 1008578
21:00+22n467499 1.4 1010159
31 july, sat
sat3100:00+22se227893 0.6 100923
03:00+21s227898 0.9 101015
06:00+22ssw237188 0.0 1010119
09:00+28wsw454873 0.0 1010649
12:00+33wsw57345 0.0 10091969
15:00+35wsw572984 0.0 10083190
18:00+33w453318 0.0 10071029
21:00+25ne466018 0.2 100999